Location: Newark
(45.6833°N, 12.6333°E)
Time: 10:13:29
(UTC+00:00)

Envisat - Visible Passes

Search period start: 27 February 2021 00:00
Search period end: 09 March 2021 00:00
Orbit: 764 x 766 km, 98.1° (Epoch: 26 February)

Date Brightness Start Highest point End Pass type
(mag) Time Alt. Az. Time Alt. Az. Time Alt. Az.
27 Feb 4.9 04:09:44 10° NNE 04:14:17 32° E 04:18:47 10° SSE visible
28 Feb 6.0 03:34:10 10° NE 03:37:05 15° E 03:39:59 10° SE visible
28 Feb 3.0 05:11:34 10° N 05:16:39 73° WNW 05:21:42 10° SSW visible
01 Mar 3.9 04:34:48 10° NNE 04:39:48 54° E 04:44:46 10° S visible
01 Mar 6.6 17:34:14 10° WSW 17:36:16 12° W 17:38:19 10° WNW visible
02 Mar 5.3 03:58:32 10° NE 04:02:46 26° E 04:06:56 10° SSE visible
03 Mar 6.2 03:23:38 10° ENE 03:25:30 12° E 03:27:21 10° ESE visible
03 Mar 3.0 05:00:07 10° NNE 05:05:14 90° W 05:10:19 10° SSW visible
04 Mar 4.3 04:23:29 10° NNE 04:28:20 43° E 04:33:09 10° S visible
05 Mar 5.7 03:47:27 10° NE 03:51:13 21° E 03:54:59 10° SE visible
06 Mar 3.3 04:48:42 10° NNE 04:53:49 73° ESE 04:58:52 10° S visible
07 Mar 4.8 04:12:12 10° NNE 04:16:50 34° E 04:21:26 10° SSE visible
08 Mar 6.0 03:36:29 10° NE 03:39:40 16° E 03:42:50 10° SE visible
